TimeEST,TemperatureF,Dew PointF,Humidity,Sea Level PressureIn,VisibilityMPH,Wind Direction,Wind SpeedMPH,Gust SpeedMPH,PrecipitationIn,Events,Conditions,WindDirDegrees,DateUTC
12:51 AM,21.0,18.0,88,30.14,10.0,Calm,Calm,-,N/A,,Partly Cloudy,0,2012-11-06 05:51:00
1:51 AM,19.9,17.1,89,30.16,10.0,Calm,Calm,-,N/A,,Clear,0,2012-11-06 06:51:00
2:51 AM,15.1,12.9,91,30.17,10.0,Calm,Calm,-,N/A,,Clear,0,2012-11-06 07:51:00
3:51 AM,12.9,10.0,88,30.18,10.0,Calm,Calm,-,N/A,,Clear,0,2012-11-06 08:51:00
4:51 AM,10.9,9.0,92,30.19,10.0,Calm,Calm,-,N/A,,Clear,0,2012-11-06 09:51:00
6:51 AM,10.0,7.0,87,30.21,10.0,Calm,Calm,-,N/A,,Clear,0,2012-11-06 11:51:00
7:51 AM,17.1,14.0,88,30.21,10.0,Calm,Calm,-,N/A,,Clear,0,2012-11-06 12:51:00
9:39 AM,26.6,17.6,69,30.14,10.0,Variable,5.8,-,N/A,,Mostly Cloudy,0,2012-11-06 14:39:00
9:51 AM,26.1,16.0,66,30.21,10.0,SW,4.6,-,N/A,,Overcast,220,2012-11-06 14:51:00
10:30 AM,26.6,15.8,64,30.14,10.0,North,3.5,-,N/A,,Scattered Clouds,350,2012-11-06 15:30:00
10:51 AM,27.0,15.1,61,30.22,10.0,Calm,Calm,-,N/A,,Clear,0,2012-11-06 15:51:00
11:51 AM,28.9,16.0,58,30.20,9.0,SW,8.1,-,0.00,,Overcast,230,2012-11-06 16:51:00
12:51 PM,30.0,15.1,54,30.18,10.0,Variable,3.5,-,0.00,,Clear,0,2012-11-06 17:51:00
2:51 PM,32.0,14.0,48,30.18,10.0,Calm,Calm,-,N/A,,Clear,0,2012-11-06 19:51:00
3:51 PM,32.0,14.0,48,30.17,10.0,Calm,Calm,-,N/A,,Clear,0,2012-11-06 20:51:00
4:51 PM,26.1,16.0,66,30.19,10.0,Calm,Calm,-,N/A,,Clear,0,2012-11-06 21:51:00
5:51 PM,21.9,15.1,75,30.19,10.0,Calm,Calm,-,N/A,,Clear,0,2012-11-06 22:51:00
6:51 PM,19.0,16.0,88,30.19,10.0,Calm,Calm,-,N/A,,Clear,0,2012-11-06 23:51:00
7:51 PM,17.1,14.0,88,30.20,10.0,Calm,Calm,-,N/A,,Clear,0,2012-11-07 00:51:00
8:51 PM,16.0,12.9,88,30.20,10.0,Calm,Calm,-,N/A,,Clear,0,2012-11-07 01:51:00
9:51 PM,14.0,12.0,92,30.20,10.0,Calm,Calm,-,N/A,,Clear,0,2012-11-07 02:51:00
10:51 PM,12.9,10.9,92,30.19,10.0,Calm,Calm,-,N/A,,Clear,0,2012-11-07 03:51:00
11:51 PM,10.9,8.1,88,30.18,10.0,Calm,Calm,-,N/A,,Clear,0,2012-11-07 04:51:00